Station Historical Data
Daily Summary for August 28, 2017 Units:  English    Metric   Both
« Previous Day
Next Day »
Daily Weekly Monthly Yearly Custom
  High: Low: Average:
Temperature: 100.7 °F 76.2 °F 85.3 °F
Dew Point: 55.0 °F 41.3 °F 46.3 °F
Humidity: 39 % 14 % 27 %
Wind Speed: 16.0 mph 0.0 mph 2.5 mph
Wind Gust: 18.0 mph - -
Wind:- - SE
Pressure: 29.88 in 29.78 in -
Precipitation: 0.00 in    
Historical Graphs
 
 
Tabular Data for August 28, 2017
Time Temperature Dew Point Pressure Wind Wind Speed Wind Gust Humidity Rainfall Rate (Hourly) solar
00:00 78.9 °F 45.7 °F 29.88 in East 4.0 mph 11.0 mph 31 % 0.00 in 0.00 W/m2
00:05 78.8 °F 45.6 °F 29.88 in Calm   9.0 mph 31 % 0.00 in 0.00 W/m2
00:10 78.7 °F 45.6 °F 29.88 in ESE 1.0 mph 9.0 mph 31 % 0.00 in 0.00 W/m2
00:15 78.7 °F 45.6 °F 29.88 in Calm   8.0 mph 31 % 0.00 in 0.00 W/m2
00:20 78.6 °F 45.5 °F 29.88 in Calm   9.0 mph 31 % 0.00 in 0.00 W/m2
00:25 78.5 °F 45.4 °F 29.87 in ESE 8.0 mph 9.0 mph 31 % 0.00 in 0.00 W/m2
00:30 78.4 °F 46.1 °F 29.88 in East 1.0 mph 11.0 mph 32 % 0.00 in 0.00 W/m2
00:35 78.4 °F 45.3 °F 29.88 in East 2.0 mph 9.0 mph 31 % 0.00 in 0.00 W/m2
00:40 78.3 °F 45.2 °F 29.88 in East 8.0 mph 11.0 mph 31 % 0.00 in 0.00 W/m2
00:45 78.2 °F 45.1 °F 29.88 in ESE 7.0 mph 15.0 mph 31 % 0.00 in 0.00 W/m2
00:50 78.2 °F 45.1 °F 29.88 in ESE 6.0 mph 11.0 mph 31 % 0.00 in 0.00 W/m2
00:56 78.1 °F 45.0 °F 29.88 in East 1.0 mph 11.0 mph 31 % 0.00 in 0.00 W/m2
01:01 78.0 °F 45.0 °F 29.88 in Calm   12.0 mph 31 % 0.00 in 0.00 W/m2
01:06 78.0 °F 45.0 °F 29.88 in ESE 5.0 mph 12.0 mph 31 % 0.00 in 0.00 W/m2
01:11 77.9 °F 44.9 °F 29.87 in East 4.0 mph 12.0 mph 31 % 0.00 in 0.00 W/m2
01:16 77.9 °F 44.9 °F 29.87 in ESE 4.0 mph 11.0 mph 31 % 0.00 in 0.00 W/m2
01:21 77.9 °F 44.9 °F 29.88 in East 2.0 mph 2.0 mph 31 % 0.00 in 0.00 W/m2
01:26 77.8 °F 44.8 °F 29.87 in Calm   12.0 mph 31 % 0.00 in 0.00 W/m2
01:31 77.8 °F 44.8 °F 29.87 in ESE 7.0 mph 8.0 mph 31 % 0.00 in 0.00 W/m2
01:36 77.7 °F 44.7 °F 29.87 in ESE 4.0 mph 6.0 mph 31 % 0.00 in 0.00 W/m2
01:41 77.6 °F 44.6 °F 29.87 in Calm   4.0 mph 31 % 0.00 in 0.00 W/m2
01:46 77.6 °F 44.6 °F 29.87 in ESE 2.0 mph 4.0 mph 31 % 0.00 in 0.00 W/m2
01:51 77.6 °F 44.6 °F 29.87 in East 2.0 mph 2.0 mph 31 % 0.00 in 0.00 W/m2
01:56 77.6 °F 45.4 °F 29.87 in East 8.0 mph 8.0 mph 32 % 0.00 in 0.00 W/m2
02:01 77.6 °F 45.4 °F 29.87 in East 4.0 mph 5.0 mph 32 % 0.00 in 0.00 W/m2
02:06 77.5 °F 45.3 °F 29.87 in ESE 4.0 mph 6.0 mph 32 % 0.00 in 0.00 W/m2
02:11 77.5 °F 45.3 °F 29.87 in East 6.0 mph 6.0 mph 32 % 0.00 in 0.00 W/m2
02:16 77.5 °F 45.3 °F 29.87 in East 4.0 mph 4.0 mph 32 % 0.00 in 0.00 W/m2
02:21 77.5 °F 45.3 °F 29.87 in East 4.0 mph 8.0 mph 32 % 0.00 in 0.00 W/m2
02:24 77.5 °F 45.3 °F 29.87 in Calm   9.0 mph 32 % 0.00 in 0.00 W/m2
02:29 77.4 °F 45.3 °F 29.87 in Calm   9.0 mph 32 % 0.00 in 0.00 W/m2
02:34 77.4 °F 45.3 °F 29.87 in Calm   8.0 mph 32 % 0.00 in 0.00 W/m2
02:39 77.4 °F 45.3 °F 29.87 in Calm   8.0 mph 32 % 0.00 in 0.00 W/m2
02:44 77.4 °F 45.3 °F 29.87 in East 2.0 mph 12.0 mph 32 % 0.00 in 0.00 W/m2
02:49 77.3 °F 44.3 °F 29.87 in ESE 1.0 mph 9.0 mph 31 % 0.00 in 0.00 W/m2
02:54 77.3 °F 44.3 °F 29.87 in Calm   11.0 mph 31 % 0.00 in 0.00 W/m2
02:59 77.2 °F 44.2 °F 29.87 in East 4.0 mph 9.0 mph 31 % 0.00 in 0.00 W/m2
03:05 77.1 °F 44.2 °F 29.87 in Calm   11.0 mph 31 % 0.00 in 0.00 W/m2
03:10 77.0 °F 44.1 °F 29.87 in Calm   11.0 mph 31 % 0.00 in 0.00 W/m2
03:15 76.9 °F 44.0 °F 29.87 in East 6.0 mph 9.0 mph 31 % 0.00 in 0.00 W/m2
03:20 76.9 °F 44.0 °F 29.86 in East 7.0 mph 11.0 mph 31 % 0.00 in 0.00 W/m2
03:25 76.8 °F 43.9 °F 29.86 in East 8.0 mph 11.0 mph 31 % 0.00 in 0.00 W/m2
03:30 76.8 °F 43.9 °F 29.86 in Calm   12.0 mph 31 % 0.00 in 0.00 W/m2
03:35 76.7 °F 43.8 °F 29.86 in Calm   11.0 mph 31 % 0.00 in 0.00 W/m2
03:40 76.7 °F 43.8 °F 29.86 in East 5.0 mph 11.0 mph 31 % 0.00 in 0.00 W/m2
03:45 76.7 °F 43.8 °F 29.86 in Calm   11.0 mph 31 % 0.00 in 0.00 W/m2
03:50 76.7 °F 44.7 °F 29.86 in East 1.0 mph 10.0 mph 32 % 0.00 in 0.00 W/m2
03:55 76.7 °F 44.7 °F 29.86 in ESE 11.0 mph 14.0 mph 32 % 0.00 in 0.00 W/m2
04:00 76.6 °F 43.7 °F 29.86 in Calm   14.0 mph 31 % 0.00 in 0.00 W/m2
04:05 76.7 °F 43.8 °F 29.86 in ESE 7.0 mph 13.0 mph 31 % 0.00 in 0.00 W/m2
04:10 76.6 °F 43.7 °F 29.86 in ESE 5.0 mph 14.0 mph 31 % 0.00 in 0.00 W/m2
04:15 76.7 °F 43.8 °F 29.86 in East 14.0 mph 15.0 mph 31 % 0.00 in 0.00 W/m2
04:20 76.6 °F 43.7 °F 29.86 in East 2.0 mph 16.0 mph 31 % 0.00 in 0.00 W/m2
04:25 76.6 °F 43.7 °F 29.86 in Calm   11.0 mph 31 % 0.00 in 0.00 W/m2
04:30 76.6 °F 43.7 °F 29.86 in East 4.0 mph 15.0 mph 31 % 0.00 in 0.00 W/m2
04:35 76.6 °F 43.7 °F 29.85 in East 7.0 mph 14.0 mph 31 % 0.00 in 0.00 W/m2
04:40 76.5 °F 43.7 °F 29.85 in ESE 2.0 mph 12.0 mph 31 % 0.00 in 0.00 W/m2
04:45 76.5 °F 43.7 °F 29.85 in ESE 8.0 mph 14.0 mph 31 % 0.00 in 0.00 W/m2
04:50 76.4 °F 43.6 °F 29.86 in ESE 9.0 mph 14.0 mph 31 % 0.00 in 0.00 W/m2
04:55 76.4 °F 43.6 °F 29.86 in East 7.0 mph 16.0 mph 31 % 0.00 in 0.00 W/m2
05:00 76.4 °F 43.6 °F 29.85 in Calm   14.0 mph 31 % 0.00 in 0.00 W/m2
05:05 76.4 °F 43.6 °F 29.85 in East 6.0 mph 14.0 mph 31 % 0.00 in 0.00 W/m2
05:10 76.3 °F 44.3 °F 29.85 in ESE 16.0 mph 16.0 mph 32 % 0.00 in 0.00 W/m2
05:15 76.3 °F 44.3 °F 29.85 in ESE 5.0 mph 12.0 mph 32 % 0.00 in 0.00 W/m2
05:20 76.3 °F 44.3 °F 29.85 in ESE 14.0 mph 14.0 mph 32 % 0.00 in 0.00 W/m2
05:25 76.2 °F 44.2 °F 29.85 in East 12.0 mph 14.0 mph 32 % 0.00 in 0.00 W/m2
05:30 76.2 °F 44.2 °F 29.85 in Calm   13.0 mph 32 % 0.00 in 0.00 W/m2
05:35 76.2 °F 44.2 °F 29.85 in East 9.0 mph 13.0 mph 32 % 0.00 in 0.00 W/m2
05:40 76.2 °F 44.2 °F 29.85 in East 5.0 mph 16.0 mph 32 % 0.00 in 0.00 W/m2
05:45 76.2 °F 44.2 °F 29.85 in Calm   18.0 mph 32 % 0.00 in 0.00 W/m2
05:50 76.2 °F 44.2 °F 29.85 in Calm   14.0 mph 32 % 0.00 in 0.00 W/m2
05:55 76.2 °F 44.2 °F 29.85 in East 6.0 mph 14.0 mph 32 % 0.00 in 0.00 W/m2
06:00 76.2 °F 44.2 °F 29.85 in ESE 6.0 mph 15.0 mph 32 % 0.00 in 0.00 W/m2
06:05 76.2 °F 44.2 °F 29.85 in Calm   13.0 mph 32 % 0.00 in 0.00 W/m2
06:10 76.2 °F 44.2 °F 29.85 in Calm   13.0 mph 32 % 0.00 in 0.00 W/m2
06:15 76.3 °F 44.3 °F 29.85 in Calm   14.0 mph 32 % 0.00 in 0.00 W/m2
06:20 76.3 °F 44.3 °F 29.86 in Calm   13.0 mph 32 % 0.00 in 0.00 W/m2
06:25 76.4 °F 45.2 °F 29.86 in Calm   18.0 mph 33 % 0.00 in 0.00 W/m2
06:30 76.3 °F 45.1 °F 29.86 in East 1.0 mph 16.0 mph 33 % 0.00 in 5.00 W/m2
06:35 76.3 °F 45.1 °F 29.86 in ESE 4.0 mph 17.0 mph 33 % 0.00 in 7.00 W/m2
06:40 76.3 °F 45.1 °F 29.86 in ESE 6.0 mph 15.0 mph 33 % 0.00 in 11.00 W/m2
06:45 76.3 °F 45.1 °F 29.86 in ESE 11.0 mph 13.0 mph 33 % 0.00 in 12.00 W/m2
06:50 76.3 °F 45.1 °F 29.86 in East 11.0 mph 16.0 mph 33 % 0.00 in 16.00 W/m2
06:55 76.4 °F 45.2 °F 29.86 in Calm   16.0 mph 33 % 0.00 in 21.00 W/m2
07:00 76.4 °F 45.2 °F 29.86 in Calm   15.0 mph 33 % 0.00 in 30.00 W/m2
07:05 76.4 °F 46.0 °F 29.86 in ESE 4.0 mph 15.0 mph 34 % 0.00 in 40.00 W/m2
07:10 76.4 °F 46.0 °F 29.86 in ESE 9.0 mph 14.0 mph 34 % 0.00 in 51.00 W/m2
07:15 76.5 °F 46.1 °F 29.86 in ESE 7.0 mph 15.0 mph 34 % 0.00 in 63.00 W/m2
07:20 76.6 °F 46.2 °F 29.86 in East 4.0 mph 14.0 mph 34 % 0.00 in 81.00 W/m2
07:25 76.6 °F 46.2 °F 29.86 in ESE 11.0 mph 18.0 mph 34 % 0.00 in 97.00 W/m2
07:30 76.6 °F 46.9 °F 29.86 in East 12.0 mph 15.0 mph 35 % 0.00 in 114.00 W/m2
07:35 76.6 °F 46.9 °F 29.86 in ESE 7.0 mph 14.0 mph 35 % 0.00 in 130.00 W/m2
07:37 76.7 °F 47.0 °F 29.86 in ESE 4.0 mph 14.0 mph 35 % 0.00 in 141.00 W/m2
07:41 76.7 °F 47.0 °F 29.86 in East 4.0 mph 15.0 mph 35 % 0.00 in 151.00 W/m2
07:46 76.8 °F 47.1 °F 29.86 in East 1.0 mph 7.0 mph 35 % 0.00 in 171.00 W/m2
07:51 76.9 °F 47.2 °F 29.86 in Calm   4.0 mph 35 % 0.00 in 188.00 W/m2
07:56 77.0 °F 48.0 °F 29.86 in East 7.0 mph 7.0 mph 36 % 0.00 in 211.00 W/m2
08:01 77.1 °F 48.1 °F 29.86 in East 6.0 mph 11.0 mph 36 % 0.00 in 234.00 W/m2
08:06 77.2 °F 48.2 °F 29.86 in ESE 5.0 mph 7.0 mph 36 % 0.00 in 253.00 W/m2
08:11 77.3 °F 48.3 °F 29.86 in ESE 4.0 mph 8.0 mph 36 % 0.00 in 274.00 W/m2
08:16 77.5 °F 49.2 °F 29.86 in ESE 6.0 mph 8.0 mph 37 % 0.00 in 287.00 W/m2
08:21 77.6 °F 49.3 °F 29.86 in ESE 6.0 mph 6.0 mph 37 % 0.00 in 302.00 W/m2
08:26 77.7 °F 49.4 °F 29.86 in East 9.0 mph 11.0 mph 37 % 0.00 in 320.00 W/m2
08:31 77.9 °F 49.6 °F 29.87 in ESE 7.0 mph 7.0 mph 37 % 0.00 in 336.00 W/m2
08:36 78.0 °F 50.4 °F 29.87 in Calm   7.0 mph 38 % 0.00 in 353.00 W/m2
08:41 78.3 °F 50.6 °F 29.86 in East 11.0 mph 11.0 mph 38 % 0.00 in 369.00 W/m2
08:46 78.5 °F 50.8 °F 29.87 in Calm   2.0 mph 38 % 0.00 in 388.00 W/m2
08:51 78.8 °F 51.1 °F 29.87 in Calm   12.0 mph 38 % 0.00 in 406.00 W/m2
08:53 78.8 °F 51.8 °F 29.87 in Calm   12.0 mph 39 % 0.00 in 410.00 W/m2
08:58 79.1 °F 52.0 °F 29.87 in East 9.0 mph 11.0 mph 39 % 0.00 in 427.00 W/m2
09:03 79.4 °F 52.3 °F 29.87 in ESE 7.0 mph 9.0 mph 39 % 0.00 in 445.00 W/m2
09:08 79.7 °F 52.6 °F 29.87 in Calm   8.0 mph 39 % 0.00 in 457.00 W/m2
09:13 80.0 °F 52.1 °F 29.86 in ESE 2.0 mph 7.0 mph 38 % 0.00 in 480.00 W/m2
09:18 80.4 °F 53.2 °F 29.86 in Calm   7.0 mph 39 % 0.00 in 492.00 W/m2
09:23 80.7 °F 52.8 °F 29.86 in ESE 5.0 mph 8.0 mph 38 % 0.00 in 506.00 W/m2
09:28 80.9 °F 53.7 °F 29.86 in ESE 4.0 mph 7.0 mph 39 % 0.00 in 524.00 W/m2
09:33 81.3 °F 54.0 °F 29.86 in ESE 7.0 mph 7.0 mph 39 % 0.00 in 538.00 W/m2
09:38 81.6 °F 53.6 °F 29.86 in Calm   5.0 mph 38 % 0.00 in 550.00 W/m2
09:43 81.9 °F 53.8 °F 29.86 in ESE 7.0 mph 7.0 mph 38 % 0.00 in 563.00 W/m2
09:48 82.4 °F 55.0 °F 29.86 in Calm   6.0 mph 39 % 0.00 in 578.00 W/m2
09:53 82.8 °F 54.6 °F 29.86 in Calm   6.0 mph 38 % 0.00 in 594.00 W/m2
09:58 83.2 °F 54.2 °F 29.86 in Calm   6.0 mph 37 % 0.00 in 610.00 W/m2
10:03 83.7 °F 53.9 °F 29.86 in Calm   5.0 mph 36 % 0.00 in 624.00 W/m2
10:08 84.1 °F 53.5 °F 29.86 in Calm   2.0 mph 35 % 0.00 in 633.00 W/m2
10:14 84.5 °F 53.9 °F 29.86 in Calm   4.0 mph 35 % 0.00 in 647.00 W/m2
10:19 84.9 °F 52.6 °F 29.86 in ESE 2.0 mph 4.0 mph 33 % 0.00 in 661.00 W/m2
10:24 85.2 °F 52.0 °F 29.86 in ESE 1.0 mph 7.0 mph 32 % 0.00 in 673.00 W/m2
10:29 85.6 °F 52.4 °F 29.86 in ESE 1.0 mph 8.0 mph 32 % 0.00 in 686.00 W/m2
10:34 86.1 °F 52.8 °F 29.86 in ESE 4.0 mph 6.0 mph 32 % 0.00 in 696.00 W/m2
10:39 86.9 °F 50.8 °F 29.86 in ESE 2.0 mph 5.0 mph 29 % 0.00 in 707.00 W/m2
10:44 87.6 °F 52.4 °F 29.86 in ESE 2.0 mph 4.0 mph 30 % 0.00 in 717.00 W/m2
10:49 88.3 °F 52.0 °F 29.86 in Calm   7.0 mph 29 % 0.00 in 724.00 W/m2
10:54 88.6 °F 53.2 °F 29.86 in SSE 2.0 mph 6.0 mph 30 % 0.00 in 740.00 W/m2
10:59 88.9 °F 52.6 °F 29.86 in Calm   4.0 mph 29 % 0.00 in 749.00 W/m2
11:04 89.2 °F 50.9 °F 29.86 in SSE 7.0 mph 9.0 mph 27 % 0.00 in 759.00 W/m2
11:09 89.8 °F 50.4 °F 29.86 in SE 4.0 mph 8.0 mph 26 % 0.00 in 766.00 W/m2
11:14 90.2 °F 50.7 °F 29.86 in Calm   5.0 mph 26 % 0.00 in 775.00 W/m2
11:24 91.1 °F 51.5 °F 29.86 in Calm   1.0 mph 26 % 0.00 in 789.00 W/m2
11:29 91.6 °F 50.8 °F 29.86 in Calm   7.0 mph 25 % 0.00 in 800.00 W/m2
11:34 92.1 °F 47.8 °F 29.86 in Calm   1.0 mph 22 % 0.00 in 805.00 W/m2
11:39 92.4 °F 48.1 °F 29.85 in Calm   5.0 mph 22 % 0.00 in 810.00 W/m2
11:44 92.9 °F 50.8 °F 29.85 in Calm   5.0 mph 24 % 0.00 in 821.00 W/m2
11:49 93.2 °F 49.9 °F 29.85 in Calm   11.0 mph 23 % 0.00 in 826.00 W/m2
11:59 94.2 °F 45.7 °F 29.85 in SSW 1.0 mph 8.0 mph 19 % 0.00 in 835.00 W/m2
12:04 94.7 °F 47.4 °F 29.85 in Calm   5.0 mph 20 % 0.00 in 838.00 W/m2
12:09 95.3 °F 47.9 °F 29.85 in Calm   6.0 mph 20 % 0.00 in 847.00 W/m2
12:14 95.8 °F 44.0 °F 29.85 in Calm   9.0 mph 17 % 0.00 in 851.00 W/m2
12:19 96.4 °F 44.5 °F 29.85 in WSW 2.0 mph 8.0 mph 17 % 0.00 in 856.00 W/m2
12:24 96.9 °F 44.9 °F 29.85 in West 6.0 mph 8.0 mph 17 % 0.00 in 858.00 W/m2
12:29 97.1 °F 45.1 °F 29.85 in Calm   3.0 mph 17 % 0.00 in 856.00 W/m2
12:34 97.1 °F 45.1 °F 29.85 in Calm   8.0 mph 17 % 0.00 in 865.00 W/m2
12:44 97.0 °F 45.0 °F 29.84 in Calm   6.0 mph 17 % 0.00 in 865.00 W/m2
12:49 97.6 °F 47.0 °F 29.85 in WSW 8.0 mph 10.0 mph 18 % 0.00 in 867.00 W/m2
12:54 98.2 °F 46.0 °F 29.84 in SW 4.0 mph 8.0 mph 17 % 0.00 in 863.00 W/m2
12:59 98.1 °F 45.9 °F 29.84 in Calm   11.0 mph 17 % 0.00 in 870.00 W/m2
13:04 98.1 °F 45.9 °F 29.84 in West 1.0 mph 8.0 mph 17 % 0.00 in 867.00 W/m2
13:09 98.2 °F 47.5 °F 29.84 in Calm   9.0 mph 18 % 0.00 in 858.00 W/m2
13:14 98.4 °F 46.1 °F 29.84 in West 7.0 mph 10.0 mph 17 % 0.00 in 863.00 W/m2
13:19 98.5 °F 46.2 °F 29.84 in Calm   13.0 mph 17 % 0.00 in 872.00 W/m2
13:25 98.7 °F 46.4 °F 29.84 in South 2.0 mph 8.0 mph 17 % 0.00 in 867.00 W/m2
13:30 99.1 °F 43.4 °F 29.84 in SW 3.0 mph 16.0 mph 15 % 0.00 in 861.00 W/m2
13:35 99.3 °F 43.6 °F 29.84 in South 11.0 mph 11.0 mph 15 % 0.00 in 851.00 W/m2
13:40 99.6 °F 45.5 °F 29.84 in South 5.0 mph 13.0 mph 16 % 0.00 in 847.00 W/m2
13:45 99.2 °F 45.2 °F 29.84 in Calm   12.0 mph 16 % 0.00 in 861.00 W/m2
13:50 99.1 °F 43.4 °F 29.84 in Calm   4.0 mph 15 % 0.00 in 853.00 W/m2
13:55 99.0 °F 43.3 °F 29.84 in Calm   7.0 mph 15 % 0.00 in 853.00 W/m2
14:00 99.5 °F 43.7 °F 29.84 in South 2.0 mph 14.0 mph 15 % 0.00 in 846.00 W/m2
14:05 100.0 °F 42.3 °F 29.83 in Calm   12.0 mph 14 % 0.00 in 824.00 W/m2
14:10 100.4 °F 46.1 °F 29.83 in Calm   12.0 mph 16 % 0.00 in 833.00 W/m2
14:15 100.6 °F 44.6 °F 29.83 in SW 5.0 mph 10.0 mph 15 % 0.00 in 831.00 W/m2
14:20 100.7 °F 44.7 °F 29.83 in SSW 3.0 mph 12.0 mph 15 % 0.00 in 826.00 W/m2
14:25 100.6 °F 44.6 °F 29.83 in SW 3.0 mph 7.0 mph 15 % 0.00 in 821.00 W/m2
14:30 100.5 °F 44.5 °F 29.83 in SW 1.0 mph 11.0 mph 15 % 0.00 in 814.00 W/m2
14:33 100.4 °F 44.4 °F 29.83 in Calm   6.0 mph 15 % 0.00 in 807.00 W/m2
14:38 99.9 °F 44.0 °F 29.83 in SW 3.0 mph 9.0 mph 15 % 0.00 in 802.00 W/m2
14:43 99.9 °F 44.0 °F 29.83 in SSW 3.0 mph 12.0 mph 15 % 0.00 in 789.00 W/m2
14:48 99.9 °F 42.2 °F 29.83 in Calm   15.0 mph 14 % 0.00 in 784.00 W/m2
14:53 99.6 °F 43.8 °F 29.83 in SW 7.0 mph 10.0 mph 15 % 0.00 in 779.00 W/m2
14:58 99.3 °F 41.8 °F 29.82 in Calm   9.0 mph 14 % 0.00 in 766.00 W/m2
15:04 99.1 °F 43.4 °F 29.82 in SSW 2.0 mph 12.0 mph 15 % 0.00 in 745.00 W/m2
15:09 99.2 °F 43.5 °F 29.82 in WSW 7.0 mph 16.0 mph 15 % 0.00 in 742.00 W/m2
15:14 99.2 °F 43.5 °F 29.82 in SW 5.0 mph 10.0 mph 15 % 0.00 in 728.00 W/m2
15:19 99.2 °F 43.5 °F 29.82 in WSW 1.0 mph 11.0 mph 15 % 0.00 in 715.00 W/m2
15:24 99.3 °F 41.8 °F 29.82 in SSW 11.0 mph 13.0 mph 14 % 0.00 in 712.00 W/m2
15:29 99.4 °F 43.6 °F 29.81 in Calm   10.0 mph 15 % 0.00 in 693.00 W/m2
15:34 99.4 °F 45.3 °F 29.81 in Calm   9.0 mph 16 % 0.00 in 686.00 W/m2
15:44 98.9 °F 43.2 °F 29.81 in Calm   12.0 mph 15 % 0.00 in 663.00 W/m2
15:49 98.8 °F 44.8 °F 29.81 in Calm   9.0 mph 16 % 0.00 in 650.00 W/m2
15:54 98.7 °F 44.8 °F 29.81 in Calm   6.0 mph 16 % 0.00 in 640.00 W/m2
15:59 98.5 °F 46.2 °F 29.81 in West 6.0 mph 11.0 mph 17 % 0.00 in 624.00 W/m2
16:04 98.2 °F 44.4 °F 29.80 in Calm   4.0 mph 16 % 0.00 in 610.00 W/m2
16:09 97.8 °F 42.4 °F 29.80 in Calm   5.0 mph 15 % 0.00 in 598.00 W/m2
16:14 97.7 °F 45.6 °F 29.80 in Calm   4.0 mph 17 % 0.00 in 591.00 W/m2
16:19 97.6 °F 42.2 °F 29.80 in WSW 1.0 mph 10.0 mph 15 % 0.00 in 578.00 W/m2
16:24 97.5 °F 42.1 °F 29.80 in Calm   9.0 mph 15 % 0.00 in 554.00 W/m2
16:29 97.4 °F 42.1 °F 29.80 in Calm   5.0 mph 15 % 0.00 in 540.00 W/m2
16:34 97.4 °F 42.1 °F 29.80 in Calm   1.0 mph 15 % 0.00 in 527.00 W/m2
16:39 97.4 °F 43.7 °F 29.79 in Calm     16 % 0.00 in 515.00 W/m2
16:44 97.2 °F 43.6 °F 29.79 in Calm   7.0 mph 16 % 0.00 in 501.00 W/m2
16:49 97.1 °F 41.8 °F 29.79 in West 2.0 mph 10.0 mph 15 % 0.00 in 487.00 W/m2
16:54 97.0 °F 41.7 °F 29.79 in Calm   14.0 mph 15 % 0.00 in 469.00 W/m2
16:59 97.0 °F 43.4 °F 29.79 in Calm   10.0 mph 16 % 0.00 in 455.00 W/m2
17:04 97.0 °F 43.4 °F 29.79 in WSW 4.0 mph 7.0 mph 16 % 0.00 in 439.00 W/m2
17:09 97.0 °F 43.4 °F 29.79 in Calm   5.0 mph 16 % 0.00 in 424.00 W/m2
17:14 96.9 °F 44.9 °F 29.79 in Calm   5.0 mph 17 % 0.00 in 408.00 W/m2
17:19 96.8 °F 46.3 °F 29.79 in Calm   4.0 mph 18 % 0.00 in 392.00 W/m2
17:24 96.5 °F 41.3 °F 29.79 in WSW 2.0 mph 6.0 mph 15 % 0.00 in 374.00 W/m2
17:29 96.3 °F 44.4 °F 29.79 in Calm   5.0 mph 17 % 0.00 in 362.00 W/m2
17:34 96.2 °F 45.9 °F 29.79 in Calm   5.0 mph 18 % 0.00 in 345.00 W/m2
17:39 96.0 °F 45.7 °F 29.78 in Calm   11.0 mph 18 % 0.00 in 327.00 W/m2
17:44 95.9 °F 47.0 °F 29.78 in Calm   5.0 mph 19 % 0.00 in 309.00 W/m2
17:49 95.7 °F 45.5 °F 29.78 in Calm   4.0 mph 18 % 0.00 in 294.00 W/m2
17:54 95.6 °F 46.8 °F 29.78 in Calm   5.0 mph 19 % 0.00 in 278.00 W/m2
17:59 95.4 °F 45.2 °F 29.78 in West 5.0 mph 7.0 mph 18 % 0.00 in 260.00 W/m2
18:04 95.1 °F 47.8 °F 29.78 in WNW 2.0 mph 6.0 mph 20 % 0.00 in 246.00 W/m2
18:09 94.9 °F 47.6 °F 29.78 in Calm     20 % 0.00 in 229.00 W/m2
18:14 94.7 °F 48.7 °F 29.78 in Calm   4.0 mph 21 % 0.00 in 213.00 W/m2
18:19 94.4 °F 49.7 °F 29.78 in WNW 3.0 mph 6.0 mph 22 % 0.00 in 195.00 W/m2
18:24 94.0 °F 50.6 °F 29.78 in Calm   5.0 mph 23 % 0.00 in 178.00 W/m2
18:29 93.5 °F 50.2 °F 29.78 in Calm   2.0 mph 23 % 0.00 in 158.00 W/m2
18:34 93.0 °F 49.8 °F 29.78 in Calm   3.0 mph 23 % 0.00 in 139.00 W/m2
18:39 92.4 °F 50.4 °F 29.78 in Calm     24 % 0.00 in 118.00 W/m2
18:44 91.8 °F 49.9 °F 29.78 in Calm   5.0 mph 24 % 0.00 in 102.00 W/m2
18:49 91.2 °F 50.5 °F 29.78 in Calm   5.0 mph 25 % 0.00 in 84.00 W/m2
18:55 90.5 °F 51.0 °F 29.78 in Calm   3.0 mph 26 % 0.00 in 69.00 W/m2
19:00 89.9 °F 50.5 °F 29.78 in Calm     26 % 0.00 in 53.00 W/m2
19:05 89.2 °F 50.9 °F 29.78 in Calm     27 % 0.00 in 40.00 W/m2
19:10 88.7 °F 51.4 °F 29.78 in Calm     28 % 0.00 in 30.00 W/m2
19:15 88.3 °F 51.1 °F 29.78 in Calm     28 % 0.00 in 21.00 W/m2
19:20 87.8 °F 50.7 °F 29.78 in Calm     28 % 0.00 in 14.00 W/m2
19:25 87.4 °F 50.3 °F 29.78 in Calm   1.0 mph 28 % 0.00 in 12.00 W/m2
19:30 86.9 °F 49.9 °F 29.78 in Calm     28 % 0.00 in 11.00 W/m2
19:35 86.4 °F 49.5 °F 29.78 in Calm     28 % 0.00 in 9.00 W/m2
19:40 86.0 °F 49.1 °F 29.78 in Calm     28 % 0.00 in 5.00 W/m2
19:45 85.6 °F 48.8 °F 29.79 in Calm     28 % 0.00 in 0.00 W/m2
19:50 85.3 °F 48.5 °F 29.78 in Calm     28 % 0.00 in 0.00 W/m2
19:55 84.9 °F 48.2 °F 29.79 in Calm     28 % 0.00 in 0.00 W/m2
20:00 84.6 °F 47.0 °F 29.79 in Calm     27 % 0.00 in 0.00 W/m2
20:05 84.4 °F 46.8 °F 29.79 in Calm     27 % 0.00 in 0.00 W/m2
20:10 84.2 °F 46.6 °F 29.79 in Calm     27 % 0.00 in 0.00 W/m2
20:17 83.9 °F 46.4 °F 29.79 in Calm     27 % 0.00 in 0.00 W/m2
20:22 83.8 °F 46.3 °F 29.79 in Calm     27 % 0.00 in 0.00 W/m2
20:23 83.8 °F 46.3 °F 29.79 in Calm     27 % 0.00 in 0.00 W/m2
20:24 83.7 °F 46.2 °F 29.79 in Calm     27 % 0.00 in 0.00 W/m2
20:27 83.7 °F 46.2 °F 29.79 in Calm     27 % 0.00 in 0.00 W/m2
20:34 83.6 °F 46.1 °F 29.80 in Calm   3.0 mph 27 % 0.00 in 0.00 W/m2
20:36 83.5 °F 46.0 °F 29.80 in WNW 3.0 mph 3.0 mph 27 % 0.00 in 0.00 W/m2
20:41 83.5 °F 46.0 °F 29.80 in WNW 1.0 mph 5.0 mph 27 % 0.00 in 0.00 W/m2
20:46 83.4 °F 45.0 °F 29.80 in Calm   2.0 mph 26 % 0.00 in 0.00 W/m2
20:51 83.4 °F 45.0 °F 29.80 in Calm   3.0 mph 26 % 0.00 in 0.00 W/m2
20:56 83.4 °F 45.0 °F 29.80 in Calm   3.0 mph 26 % 0.00 in 0.00 W/m2
21:01 83.4 °F 45.0 °F 29.80 in WNW 3.0 mph 4.0 mph 26 % 0.00 in 0.00 W/m2
21:06 83.4 °F 45.0 °F 29.80 in Calm   2.0 mph 26 % 0.00 in 0.00 W/m2
21:12 83.4 °F 45.0 °F 29.80 in NW 1.0 mph 3.0 mph 26 % 0.00 in 0.00 W/m2
21:17 83.3 °F 44.9 °F 29.80 in Calm   4.0 mph 26 % 0.00 in 0.00 W/m2
21:22 83.3 °F 44.9 °F 29.80 in Calm   3.0 mph 26 % 0.00 in 0.00 W/m2
21:27 83.3 °F 44.9 °F 29.80 in NW 3.0 mph 5.0 mph 26 % 0.00 in 0.00 W/m2
21:32 83.3 °F 43.8 °F 29.80 in NW 1.0 mph 2.0 mph 25 % 0.00 in 0.00 W/m2
21:37 83.3 °F 44.9 °F 29.80 in Calm   2.0 mph 26 % 0.00 in 0.00 W/m2
21:42 83.2 °F 44.8 °F 29.80 in Calm   1.0 mph 26 % 0.00 in 0.00 W/m2
21:52 83.0 °F 44.6 °F 29.81 in Calm   4.0 mph 26 % 0.00 in 0.00 W/m2
21:57 82.9 °F 44.5 °F 29.81 in NNE 3.0 mph 6.0 mph 26 % 0.00 in 0.00 W/m2
22:02 82.9 °F 45.5 °F 29.81 in NNE 3.0 mph 4.0 mph 27 % 0.00 in 0.00 W/m2
22:07 82.8 °F 45.4 °F 29.81 in NE 2.0 mph 4.0 mph 27 % 0.00 in 0.00 W/m2
22:12 82.7 °F 45.3 °F 29.81 in Calm   3.0 mph 27 % 0.00 in 0.00 W/m2
22:17 82.6 °F 45.3 °F 29.81 in Calm   4.0 mph 27 % 0.00 in 0.00 W/m2
22:22 82.5 °F 45.2 °F 29.81 in East 4.0 mph 7.0 mph 27 % 0.00 in 0.00 W/m2
22:27 82.4 °F 45.1 °F 29.81 in East 6.0 mph 6.0 mph 27 % 0.00 in 0.00 W/m2
22:32 82.3 °F 45.0 °F 29.81 in Calm   5.0 mph 27 % 0.00 in 0.00 W/m2
22:37 82.2 °F 44.9 °F 29.81 in Calm   7.0 mph 27 % 0.00 in 0.00 W/m2
22:42 82.1 °F 44.8 °F 29.81 in East 1.0 mph 7.0 mph 27 % 0.00 in 0.00 W/m2
22:47 82.0 °F 44.8 °F 29.81 in East 6.0 mph 12.0 mph 27 % 0.00 in 0.00 W/m2
22:52 81.9 °F 44.7 °F 29.80 in Calm   8.0 mph 27 % 0.00 in 0.00 W/m2
22:57 81.8 °F 44.6 °F 29.80 in Calm   8.0 mph 27 % 0.00 in 0.00 W/m2
23:02 81.8 °F 44.6 °F 29.80 in East 6.0 mph 14.0 mph 27 % 0.00 in 0.00 W/m2
23:07 81.7 °F 44.5 °F 29.80 in Calm   8.0 mph 27 % 0.00 in 0.00 W/m2
23:12 81.6 °F 44.4 °F 29.80 in East 6.0 mph 12.0 mph 27 % 0.00 in 0.00 W/m2
23:17 81.5 °F 44.3 °F 29.80 in Calm   13.0 mph 27 % 0.00 in 0.00 W/m2
23:22 81.4 °F 44.2 °F 29.80 in ESE 4.0 mph 11.0 mph 27 % 0.00 in 0.00 W/m2
23:27 81.3 °F 44.2 °F 29.80 in ESE 1.0 mph 14.0 mph 27 % 0.00 in 0.00 W/m2
23:32 81.2 °F 44.1 °F 29.80 in ESE 9.0 mph 14.0 mph 27 % 0.00 in 0.00 W/m2
23:37 81.2 °F 44.1 °F 29.80 in East 8.0 mph 12.0 mph 27 % 0.00 in 0.00 W/m2
23:42 81.2 °F 44.1 °F 29.80 in East 7.0 mph 8.0 mph 27 % 0.00 in 0.00 W/m2
23:47 81.1 °F 43.0 °F 29.80 in ESE 5.0 mph 13.0 mph 26 % 0.00 in 0.00 W/m2
23:52 81.1 °F 43.0 °F 29.80 in East 6.0 mph 11.0 mph 26 % 0.00 in 0.00 W/m2
23:57 81.1 °F 44.0 °F 29.80 in Calm   14.0 mph 27 % 0.00 in 0.00 W/m2
Juneau County Weather
Compliments of Weather Underground - 4.5 mb
 WU-history PHP script courtesy of   Juneau County Weather.
powered by Cumulus v1.9.3 (1059)
Ambient Weather VWS v14.00
Top Contact Website Map Copyright © 2007 - 2018 Foresthillweather.com Never base important decisions on this or any weather information obtained from the Internet